FW4413 Weather Reports


time (UTC)temp
C
wind
direction
speed
KPH
gust
KPH
rain 1hr
cm
rain 24hr
cm
rain mn
cm
humidity
%
barometer
mb
20191021205030 12 319 1.6 3.2 0.00 0.10 0.10 89 1098.4
20191021204530 12 318 0.0 3.2 0.00 0.10 0.10 89 1098.3
20191021204030 12 324 0.0 1.6 0.00 0.10 0.10 89 1098.3
20191021203531 12 324 0.0 1.6 0.00 0.10 0.10 89 1098.3
20191021203030 12 324 0.0 0.0 0.00 0.10 0.10 89 1098.2
20191021202528 12 324 0.0 0.0 0.00 0.10 0.10 89 1098.2
20191021202027 12 324 0.0 0.0 0.00 0.10 0.10 89 1098.2
20191021201527 12 325 0.0 0.0 0.00 0.10 0.10 90 1098.3
20191021201028 12 324 0.0 0.0 0.00 0.10 0.10 92 1098.2
20191021200527 12 324 0.0 0.0 0.00 0.10 0.10 92 1098.2
20191021200031 12 324 0.0 0.0 0.00 0.10 0.10 93 1098.1
20191021194524 12 325 0.0 0.0 0.00 0.10 0.10 92 1098.3
20191021183517 13 324 0.0 0.0 0.00 0.10 0.10 90 1098.0
20191021183018 13 324 0.0 0.0 0.00 0.10 0.10 90 1098.0
20191021181517 13 325 0.0 0.0 0.00 0.10 0.10 89 1098.0
20191021181018 13 325 0.0 0.0 0.00 0.10 0.10 89 1098.0
20191021180517 13 325 0.0 0.0 0.00 0.10 0.10 88 1098.0
20191021175517 14 325 0.0 0.0 0.00 0.10 0.10 87 1097.9
20191021175018 14 325 0.0 0.0 0.00 0.10 0.10 86 1097.9
20191021174018 14 325 0.0 1.6 0.00 0.10 0.10 86 1097.8
20191021173517 14 324 0.0 1.6 0.00 0.10 0.10 86 1097.8
20191021172515 15 324 1.6 1.6 0.00 0.10 0.10 85 1097.6
20191021172015 15 324 0.0 1.6 0.00 0.10 0.10 85 1097.7
20191021171512 15 324 0.0 1.6 0.00 0.10 0.10 85 1097.6
20191021171012 15 324 0.0 1.6 0.00 0.10 0.10 85 1097.6
20191021170509 15 324 0.0 1.6 0.00 0.10 0.10 85 1097.5
20191021170009 15 324 0.0 1.6 0.00 0.10 0.10 85 1097.4
20191021165507 15 324 0.0 1.6 0.00 0.10 0.10 85 1097.4
20191021165006 15 324 0.0 0.0 0.00 0.10 0.10 85 1097.4
20191021164506 14 324 0.0 0.0 0.00 0.10 0.10 85 1097.4
20191021164004 15 324 0.0 0.0 0.00 0.10 0.10 84 1097.5
20191021163504 15 324 0.0 0.0 0.00 0.10 0.10 83 1097.4
20191021163002 15 324 0.0 0.0 0.00 0.10 0.10 84 1097.2
20191021162501 15 324 0.0 0.0 0.00 0.10 0.10 84 1097.2
20191021162002 15 324 0.0 0.0 0.00 0.10 0.10 83 1097.2
20191021161505 15 325 0.0 0.0 0.00 0.10 0.10 82 1097.2
20191021161002 15 324 0.0 0.0 0.00 0.10 0.10 83 1097.0
20191021160500 15 324 0.0 0.0 0.00 0.10 0.10 82 1097.0
20191021160001 16 324 0.0 0.0 0.00 0.10 0.10 81 1096.9
20191021155501 16 324 0.0 0.0 0.00 0.10 0.10 80 1096.8
20191021155002 16 324 0.0 0.0 0.00 0.10 0.10 79 1096.8
20191021154501 16 324 0.0 1.6 0.00 0.10 0.10 79 1096.7
20191021154002 16 324 0.0 3.2 0.00 0.10 0.10 78 1096.7
20191021153503 16 325 1.6 3.2 0.00 0.10 0.10 78 1096.6
20191021153002 17 308 1.6 3.2 0.00 0.10 0.10 77 1096.8
20191021152502 17 308 1.6 3.2 0.00 0.10 0.10 77 1096.8
20191021152001 17 308 1.6 3.2 0.00 0.10 0.10 77 1096.8
20191021151501 17 308 1.6 3.2 0.00 0.10 0.10 76 1096.7
20191021151001 17 308 0.0 4.8 0.00 0.10 0.10 75 1096.7
20191021150502 17 308 1.6 4.8 0.00 0.10 0.10 75 1096.7
20191021150001 17 308 1.6 4.8 0.00 0.10 0.10 76 1096.7
20191021145501 17 322 1.6 1.6 0.00 0.10 0.10 76 1096.6
20191021145002 17 325 1.6 1.6 0.00 0.10 0.10 75 1096.8
20191021144501 17 325 0.0 1.6 0.00 0.10 0.10 76 1096.6
20191021144003 17 325 0.0 1.6 0.00 0.10 0.10 74 1096.6
20191021143501 18 325 0.0 1.6 0.00 0.10 0.10 74 1096.6
20191021143001 18 326 0.0 0.0 0.00 0.10 0.10 74 1096.6
20191021142501 17 326 0.0 0.0 0.00 0.10 0.10 77 1096.7
20191021142002 17 326 0.0 1.6 0.00 0.10 0.10 77 1096.5
20191021141500 17 326 0.0 4.8 0.00 0.10 0.10 77 1096.4
20191021141003 17 326 0.0 4.8 0.00 0.10 0.10 76 1096.6
20191021140501 17 326 1.6 4.8 0.00 0.10 0.10 75 1096.5
20191021140003 17 334 1.6 6.4 0.00 0.10 0.10 74 1096.5
20191021135459 17 317 1.6 3.2 0.00 0.10 0.10 76 1096.3
20191021134959 17 315 3.2 6.4 0.00 0.10 0.10 77 1096.4
20191021134458 17 344 3.2 6.4 0.00 0.10 0.10 76 1096.2
20191021134001 17 330 3.2 6.4 0.00 0.10 0.10 77 1096.3
20191021133459 17 313 3.2 8.0 0.00 0.10 0.10 78 1096.4
20191021132959 17 334 3.2 8.0 0.00 0.10 0.10 79 1096.3
20191021132459 17 308 3.2 6.4 0.00 0.10 0.10 80 1096.4
20191021131959 16 299 3.2 9.7 0.00 0.10 0.10 81 1096.5
20191021131459 16 282 3.2 9.7 0.00 0.10 0.10 80 1096.6
20191021130959 16 301 4.8 6.4 0.00 0.10 0.10 80 1096.6
20191021130457 16 303 3.2 8.0 0.00 0.10 0.10 80 1096.6
20191021125958 16 294 3.2 8.0 0.00 0.10 0.10 81 1096.6
20191021124957 15 309 1.6 6.4 0.00 0.10 0.10 85 1096.8
20191021123957 14 255 1.6 4.8 0.00 0.10 0.10 90 1096.7
20191021123457 14 264 0.0 4.8 0.00 0.10 0.10 91 1096.8
20191021122957 13 300 1.6 3.2 0.00 0.10 0.10 92 1096.6
20191021122456 13 301 1.6 4.8 0.00 0.10 0.10 91 1096.3
20191021121956 13 302 3.2 4.8 0.00 0.10 0.10 91 1096.0
20191021121455 13 299 1.6 4.8 0.00 0.10 0.10 91 1095.9
20191021120955 13 298 1.6 4.8 0.00 0.10 0.10 94 1095.8
20191021120453 13 285 0.0 3.2 0.00 0.10 0.10 94 1095.7
20191021115953 13 285 0.0 3.2 0.00 0.10 0.10 95 1095.8
20191021115454 13 254 0.0 1.6 0.00 0.10 0.10 95 1095.9
20191021114955 13 240 0.0 1.6 0.00 0.10 0.10 96 1095.9
20191021114451 13 237 0.0 3.2 0.00 0.10 0.10 97 1095.9
20191021113949 13 232 0.0 1.6 0.00 0.10 0.10 97 1095.9
20191021113446 13 207 1.6 4.8 0.00 0.10 0.10 97 1095.9
20191021112945 12 199 1.6 4.8 0.00 0.10 0.10 97 1096.0
20191021112445 12 315 0.0 3.2 0.00 0.10 0.10 97 1096.0
20191021111947 12 321 0.0 3.2 0.00 0.10 0.10 97 1095.8
20191021111445 12 321 0.0 3.2 0.00 0.10 0.10 97 1095.6
20191021110945 12 320 1.6 3.2 0.00 0.10 0.10 96 1095.4
20191021110445 12 310 0.0 3.2 0.00 0.10 0.10 97 1095.7
20191021105945 12 325 0.0 1.6 0.00 0.10 0.10 97 1096.0
20191021105445 12 325 0.0 1.6 0.00 0.10 0.10 97 1096.1
20191021104943 12 325 0.0 1.6 0.00 0.10 0.10 97 1095.9
20191021104442 12 325 0.0 1.6 0.00 0.10 0.10 96 1095.8
20191021103943 12 325 0.0 1.6 0.00 0.10 0.10 97 1095.7
20191021103441 12 325 0.0 0.0 0.00 0.10 0.10 97 1095.9
20191021102940 12 325 0.0 0.0 0.00 0.10 0.10 97 1096.0
20191021102441 12 325 0.0 1.6 0.00 0.10 0.10 97 1095.6
20191021101941 11 325 0.0 3.2 0.00 0.10 0.10 96 1095.3
20191021101441 11 325 1.6 3.2 0.00 0.10 0.10 96 1095.3
20191021100939 11 311 1.6 3.2 0.00 0.10 0.10 96 1095.4
20191021100436 12 318 1.6 3.2 0.00 0.10 0.10 96 1095.4
20191021095938 12 296 1.6 3.2 0.00 0.10 0.10 96 1095.6
20191021095437 12 282 0.0 3.2 0.00 0.10 0.10 97 1095.6
20191021094937 12 264 0.0 3.2 0.00 0.10 0.10 97 1095.6
20191021094434 12 263 0.0 3.2 0.00 0.10 0.10 97 1095.7
20191021093932 12 264 0.0 3.2 0.00 0.10 0.10 97 1095.4
20191021093431 12 263 0.0 3.2 0.00 0.10 0.10 97 1095.7
20191021092929 12 263 1.6 3.2 0.00 0.10 0.10 97 1095.8
20191021092430 12 264 1.6 3.2 0.00 0.10 0.10 98 1095.8
20191021091928 12 264 0.0 3.2 0.00 0.10 0.10 98 1095.8
20191021091430 11 294 0.0 1.6 0.00 0.10 0.10 98 1095.6
20191021090930 11 320 0.0 1.6 0.00 0.10 0.10 98 1095.2
20191021090428 11 320 0.0 1.6 0.00 0.10 0.10 98 1095.3
20191021085929 11 320 0.0 3.2 0.00 0.10 0.10 98 1095.3
20191021085429 11 319 0.0 3.2 0.00 0.10 0.10 98 1095.2
20191021084930 11 28 0.0 1.6 0.00 0.10 0.10 98 1095.2
20191021084428 11 28 0.0 1.6 0.00 0.10 0.10 98 1095.1
20191021083928 11 32 0.0 3.2 0.00 0.10 0.10 98 1095.1
20191021083430 10 33 1.6 3.2 0.00 0.10 0.10 98 1095.1
20191021082929 10 268 0.0 3.2 0.00 0.10 0.10 98 1095.0
20191021082429 10 267 0.0 3.2 0.00 0.10 0.10 98 1095.1
20191021081929 10 316 0.0 0.0 0.00 0.10 0.10 98 1094.9
20191021081429 10 316 0.0 3.2 0.00 0.10 0.10 98 1095.0
20191021080930 10 316 0.0 3.2 0.00 0.10 0.10 98 1094.8
20191021080429 10 316 1.6 3.2 0.00 0.10 0.10 98 1094.7
20191021075929 10 316 1.6 3.2 0.00 0.10 0.10 98 1094.7
20191021075429 10 304 0.0 3.2 0.00 0.10 0.10 98 1094.6
20191021074929 10 304 0.0 3.2 0.00 0.10 0.10 98 1094.6
20191021073429 9 303 1.6 4.8 0.00 0.10 0.10 98 1094.4
20191021072429 9 301 1.6 4.8 0.00 0.10 0.10 98 1094.4
20191021071930 9 302 1.6 4.8 0.00 0.10 0.10 98 1094.3
20191021071429 9 300 1.6 4.8 0.00 0.10 0.10 98 1094.1
20191021070929 9 300 1.6 4.8 0.00 0.10 0.10 98 1094.0
20191021070429 9 310 0.0 1.6 0.00 0.10 0.10 98 1093.3
20191021065927 9 312 0.0 3.2 0.00 0.10 0.10 98 1093.3
20191021065427 9 311 0.0 3.2 0.03 0.10 0.10 98 1093.4
20191021064926 9 324 0.0 1.6 0.03 0.10 0.10 98 1093.3
20191021064426 9 327 0.0 0.0 0.03 0.10 0.10 98 1093.2
20191021063928 9 327 0.0 1.6 0.03 0.10 0.10 98 1093.1
20191021063426 8 327 0.0 1.6 0.03 0.10 0.10 98 1093.1
20191021055425 8 355 0.0 3.2 0.03 0.08 0.08 98 1092.2
20191021054925 8 359 0.0 3.2 0.03 0.08 0.08 98 1092.2
20191021054424 8 0 0.0 3.2 0.03 0.08 0.08 98 1091.9
20191021053927 8 0 0.0 1.6 0.03 0.08 0.08 98 1091.9
20191021053424 8 5 0.0 4.8 0.03 0.08 0.08 98 1091.8
20191021052924 8 340 0.0 3.2 0.05 0.08 0.08 98 1091.6
20191021052423 8 315 0.0 1.6 0.05 0.08 0.08 98 1091.6
20191021051922 8 315 0.0 1.6 0.05 0.08 0.08 98 1091.6
20191021051422 8 315 0.0 1.6 0.05 0.08 0.08 98 1091.7
20191021050922 8 315 0.0 1.6 0.03 0.05 0.05 98 1091.6
20191021050422 8 315 0.0 1.6 0.03 0.05 0.05 97 1091.6
20191021045923 8 315 0.0 1.6 0.03 0.05 0.05 97 1091.5
20191021041921 8 315 0.0 1.6 0.00 0.05 0.05 97 1091.2
20191021041421 8 315 0.0 1.6 0.00 0.05 0.05 97 1091.3
20191021040920 8 315 0.0 1.6 0.00 0.05 0.05 97 1091.2
20191021040421 8 315 0.0 1.6 0.00 0.05 0.05 97 1091.1
20191021035920 8 315 0.0 1.6 0.00 0.05 0.05 97 1091.1
20191021035421 9 315 0.0 1.6 0.00 0.05 0.05 97 1091.3
20191021034920 9 315 0.0 1.6 0.00 0.05 0.05 97 1091.2
20191021034417 9 315 0.0 1.6 0.00 0.05 0.05 97 1091.4
20191021033919 9 315 0.0 1.6 0.00 0.05 0.05 97 1091.2
20191021033418 9 315 0.0 1.6 0.03 0.05 0.05 97 1091.2
20191021032918 9 315 0.0 1.6 0.03 0.05 0.05 97 1091.1
20191021032418 9 315 0.0 1.6 0.03 0.05 0.05 97 1091.0
20191021031918 9 315 0.0 1.6 0.03 0.05 0.05 97 1091.0
20191021031419 9 315 0.0 1.6 0.03 0.05 0.05 97 1090.7
20191021023916 9 321 0.0 1.6 0.03 0.05 0.05 97 1090.6
20191021022914 9 321 0.0 1.6 0.00 0.03 0.03 97 1090.5
20191021022415 9 321 0.0 1.6 0.00 0.03 0.03 97 1090.3
20191021021914 9 322 0.0 1.6 0.00 0.03 0.03 97 1090.5
20191021021414 9 322 0.0 3.2 0.00 0.03 0.03 97 1090.3
20191021020914 9 322 0.0 3.2 0.00 0.03 0.03 97 1090.2
20191021020412 9 315 0.0 1.6 0.00 0.03 0.03 97 1090.2
20191021015912 9 315 0.0 1.6 0.00 0.03 0.03 97 1090.3
20191021015410 9 315 0.0 3.2 0.00 0.03 0.03 97 1090.3
20191021014910 9 315 0.0 3.2 0.00 0.03 0.03 97 1090.1
20191021014410 9 315 0.0 1.6 0.00 0.03 0.03 97 1090.1
20191021013910 9 315 0.0 1.6 0.00 0.03 0.03 97 1090.0
20191021013409 9 315 0.0 1.6 0.00 0.03 0.03 97 1090.0
20191021012910 9 315 0.0 1.6 0.00 0.03 0.03 97 1089.9
20191021012410 9 315 0.0 1.6 0.00 0.03 0.03 97 1089.9
20191021011908 9 315 0.0 4.8 0.00 0.03 0.03 97 1089.9
20191021011410 9 315 1.6 4.8 0.00 0.03 0.03 97 1089.9
20191021010405 8 324 0.0 3.2 0.00 0.03 0.03 97 1090.0
20191021004404 8 352 0.0 0.0 0.00 0.03 0.03 97 1089.8
20191021003902 8 352 0.0 0.0 0.00 0.03 0.03 97 1089.6
20191021003402 8 352 0.0 0.0 0.00 0.03 0.03 97 1089.6
20191021002901 8 352 0.0 0.0 0.00 0.03 0.03 97 1089.5
20191021002402 8 352 0.0 0.0 0.03 0.03 0.03 97 1089.5
20191021001901 8 352 0.0 0.0 0.03 0.03 0.03 97 1089.4
20191021001401 8 352 0.0 0.0 0.03 0.03 0.03 97 1089.5
20191021000901 8 352 0.0 0.0 0.03 0.03 0.03 97 1089.5
20191021000401 8 352 0.0 0.0 0.03 0.03 0.03 97 1089.3
20191020235901 8 352 0.0 0.0 0.03 0.03 0.03 97 1089.4
20191020235402 8 352 0.0 0.0 0.03 0.03 0.03 97 1089.5
20191020234902 8 352 0.0 0.0 0.03 0.03 0.03 97 1089.4
20191020234402 8 352 0.0 0.0 0.03 0.03 0.03 97 1089.4
20191020233901 8 352 0.0 0.0 0.03 0.03 0.03 97 1089.3
20191020232400 8 353 0.0 3.2 0.00 0.00 0.00 97 1089.3
20191020231900 8 356 0.0 3.2 0.00 0.00 0.00 97 1089.2
20191020230859 8 316 0.0 1.6 0.00 0.00 0.00 97 1089.5
20191020225859 8 315 0.0 1.6 0.00 0.00 0.00 97 1089.7
20191020224902 9 315 0.0 1.6 0.00 0.00 0.00 97 1089.7
20191020224359 8 315 0.0 1.6 0.00 0.00 0.00 97 1089.6
20191020223859 8 326 0.0 1.6 0.00 0.00 0.00 97 1089.5
20191020222901 8 325 0.0 1.6 0.00 0.00 0.00 96 1089.4
20191020220857 8 329 0.0 3.2 0.00 0.00 0.00 96 1089.5
20191020220356 9 329 0.0 3.2 0.00 0.00 0.00 96 1089.4
20191020215351 9 329 0.0 1.6 0.00 0.00 0.00 96 1089.6
20191020214852 9 329 0.0 1.6 0.00 0.00 0.00 96 1089.6
20191020214352 9 329 0.0 1.6 0.00 0.00 0.00 96 1089.6
20191020213853 9 329 0.0 1.6 0.00 0.00 0.00 96 1089.5
20191020213352 8 329 0.0 1.6 0.00 0.00 0.00 96 1089.5
20191020212852 8 329 0.0 0.0 0.00 0.00 0.00 96 1089.5
20191020212350 8 329 0.0 0.0 0.00 0.00 0.00 96 1089.4
20191020211848 8 329 0.0 1.6 0.00 0.00 0.00 96 1089.3
20191020211347 8 329 0.0 1.6 0.00 0.00 0.00 96 1089.4
20191020210850 8 329 0.0 1.6 0.00 0.00 0.00 96 1089.4